Location: Aulagny
(45.1643°N, 4.3096°E)
Time: 03:28:46
(UTC+00:00)

Meteor 2-1 Rocket - Pass Details

Date: 21 October 2019
Orbit: 829 x 908 km, 81.3° (Epoch: 12 November)

Event Time Altitude Azimuth Distance (km) Brightness Sun altitude
Rises 18:15:50 0° 169° (S) 3,357 7.2 -16.1°
Reaches altitude 10° 18:18:19 10° 163° (SSE) 2,430 6.4 -16.6°
Maximum altitude 18:23:29 44° 93° (E) 1,144 4.4 -17.5°
Drops below altitude 10° 18:28:45 10° 23° (NNE) 2,473 6.4 -18.4°
Sets 18:31:16 0° 17° (NNE) 3,423 7.2 -18.9°
